• Em Portugal
  • Lista de países
  • Para 7 dias
  • Temperatura da água
  • Mapas de satélite
  • Mapa do tempo
  • Widgets de tempo
  • user-avatar
    Iniciar Sessão

    Previsão horária em Bolshie Toronkovichi

    Hoje, 24 Setembro, Segunda-feira

    Tempo Temperatura Precipitação Vento Pressão Humidade
    00:00 +7°C° 0 mm 2 m/s 734 mmHg 91%
    01:00 +7°C° 0 mm 2 m/s 734 mmHg 92%
    02:00 +7°C° 0 mm 2 m/s 733 mmHg 94%
    03:00 +7°C° 0.7 mm 2 m/s 732 mmHg 95%
    04:00 +7°C° 0.7 mm 2 m/s 732 mmHg 96%
    05:00 +8°C° 0.7 mm 2 m/s 731 mmHg 96%
    06:00 +8°C° 2.1 mm 3 m/s 730 mmHg 96%
    07:00 +8°C° 2.1 mm 3 m/s 729 mmHg 96%
    08:00 +7°C° 0 mm 4 m/s 728 mmHg 95%
    09:00 +6°C° 2.7 mm 4 m/s 728 mmHg 95%
    10:00 +6°C° 2.7 mm 4 m/s 727 mmHg 95%
    11:00 +6°C° 2.7 mm 5 m/s 726 mmHg 95%
    12:00 +6°C° 1.9 mm 5 m/s 726 mmHg 94%
    13:00 +5°C° 1.9 mm 6 m/s 726 mmHg 93%
    14:00 +5°C° 1.9 mm 7 m/s 726 mmHg 92%
    15:00 +5°C° 0.3 mm 7 m/s 727 mmHg 90%
    16:00 +6°C° 0.3 mm 7 m/s 727 mmHg 88%
    17:00 +6°C° 0.3 mm 7 m/s 728 mmHg 86%
    18:00 +7°C° 0.1 mm 6 m/s 729 mmHg 88%
    19:00 +5°C° 0.1 mm 6 m/s 729 mmHg 89%
    20:00 +6°C° 0.1 mm 5 m/s 730 mmHg 91%
    21:00 +6°C° 0 mm 5 m/s 731 mmHg 91%
    22:00 +6°C° 0 mm 5 m/s 731 mmHg 90%
    23:00 +4°C° 0 mm 6 m/s 732 mmHg 90%

    Amanhã, 25 Setembro, Terça-feira

    Tempo Temperatura Precipitação Vento Pressão Humidade
    00:00 +5°C° 0 mm 5 m/s 733 mmHg 90%
    01:00 +5°C° 0 mm 5 m/s 733 mmHg 90%
    02:00 +3°C° 0 mm 5 m/s 734 mmHg 89%
    03:00 +3°C° 0 mm 5 m/s 734 mmHg 90%
    04:00 +2°C° 0 mm 5 m/s 735 mmHg 92%
    05:00 +2°C° 0 mm 5 m/s 735 mmHg 93%
    06:00 +2°C° 0 mm 6 m/s 736 mmHg 90%
    07:00 +3°C° 0 mm 6 m/s 737 mmHg 87%
    08:00 +3°C° 0 mm 6 m/s 737 mmHg 84%
    09:00 +4°C° 0 mm 6 m/s 738 mmHg 79%
    10:00 +5°C° 0 mm 6 m/s 739 mmHg 74%
    11:00 +6°C° 0 mm 7 m/s 739 mmHg 68%
    12:00 +6°C° 0.1 mm 7 m/s 740 mmHg 66%
    13:00 +6°C° 0.1 mm 7 m/s 740 mmHg 63%
    14:00 +8°C° 0.1 mm 7 m/s 741 mmHg 60%
    15:00 +7°C° 0.1 mm 6 m/s 741 mmHg 60%
    16:00 +7°C° 0.1 mm 5 m/s 742 mmHg 61%
    17:00 +6°C° 0.1 mm 5 m/s 743 mmHg 62%
    18:00 +5°C° 0 mm 4 m/s 743 mmHg 63%
    19:00 +4°C° 0 mm 4 m/s 744 mmHg 64%
    20:00 +3°C° 0 mm 4 m/s 745 mmHg 65%
    21:00 +3°C° 0 mm 4 m/s 745 mmHg 66%
    22:00 +1°C° 0 mm 4 m/s 746 mmHg 66%
    23:00 +1°C° 0 mm 4 m/s 746 mmHg 67%

    Depois de amanhã, 26 Setembro, Quarta-feira

    Tempo Temperatura Precipitação Vento Pressão Humidade
    00:00 0°C° 0 mm 4 m/s 747 mmHg 70%
    01:00 0°C° 0 mm 4 m/s 747 mmHg 73%
    02:00 +1°C° 0 mm 3 m/s 748 mmHg 76%
    03:00 +1°C° 0 mm 3 m/s 748 mmHg 81%
    04:00 +1°C° 0 mm 3 m/s 748 mmHg 86%
    05:00 +1°C° 0 mm 3 m/s 748 mmHg 91%
    06:00 +2°C° 0 mm 3 m/s 749 mmHg 86%
    07:00 +3°C° 0 mm 4 m/s 749 mmHg 81%
    08:00 +4°C° 0 mm 4 m/s 749 mmHg 77%
    09:00 +5°C° 0 mm 4 m/s 749 mmHg 70%
    10:00 +7°C° 0 mm 5 m/s 748 mmHg 64%
    11:00 +9°C° 0 mm 5 m/s 748 mmHg 57%
    12:00 +10°C° 0 mm 6 m/s 748 mmHg 57%
    13:00 +10°C° 0 mm 6 m/s 747 mmHg 57%
    14:00 +10°C° 0 mm 7 m/s 747 mmHg 57%
    15:00 +9°C° 0.2 mm 7 m/s 746 mmHg 63%
    16:00 +8°C° 0.2 mm 6 m/s 745 mmHg 69%
    17:00 +7°C° 0.2 mm 6 m/s 744 mmHg 75%
    18:00 +6°C° 0.5 mm 7 m/s 744 mmHg 77%
    19:00 +6°C° 0.5 mm 7 m/s 743 mmHg 80%
    20:00 +5°C° 0.5 mm 7 m/s 742 mmHg 83%
    21:00 +5°C° 0.4 mm 8 m/s 741 mmHg 84%
    22:00 +5°C° 0.4 mm 8 m/s 741 mmHg 85%
    23:00 +5°C° 0.4 mm 9 m/s 740 mmHg 86%

    27 Setembro, Quinta-feira

    Tempo Temperatura Precipitação Vento Pressão Humidade
    00:00 +5°C° 0.3 mm 8 m/s 739 mmHg 87%
    01:00 +5°C° 0.3 mm 8 m/s 738 mmHg 88%
    02:00 +5°C° 0.3 mm 8 m/s 738 mmHg 88%
    03:00 +6°C° 0.3 mm 8 m/s 737 mmHg 89%
    04:00 +6°C° 0.3 mm 8 m/s 737 mmHg 89%
    05:00 +8°C° 0.3 mm 7 m/s 736 mmHg 90%
    06:00 +8°C° 0.5 mm 7 m/s 736 mmHg 91%
    07:00 +9°C° 0.5 mm 6 m/s 736 mmHg 91%
    08:00 +9°C° 0.5 mm 5 m/s 736 mmHg 92%
    09:00 +9°C° 0.5 mm 5 m/s 736 mmHg 93%
    10:00 +11°C° 0.5 mm 4 m/s 736 mmHg 93%
    11:00 +11°C° 0.5 mm 4 m/s 736 mmHg 94%
    12:00 +11°C° 0.7 mm 4 m/s 736 mmHg 93%
    13:00 +11°C° 0.7 mm 4 m/s 736 mmHg 92%
    14:00 +10°C° 0.7 mm 5 m/s 736 mmHg 91%
    15:00 +11°C° 0.5 mm 4 m/s 736 mmHg 92%
    16:00 +10°C° 0.5 mm 3 m/s 736 mmHg 92%
    17:00 +10°C° 0.5 mm 2 m/s 736 mmHg 93%
    18:00 +10°C° 0.6 mm 2 m/s 737 mmHg 93%
    19:00 +11°C° 0.6 mm 3 m/s 737 mmHg 92%
    20:00 +11°C° 0.6 mm 4 m/s 737 mmHg 92%
    21:00 +11°C° 0.1 mm 4 m/s 737 mmHg 92%
    22:00 +11°C° 0.1 mm 4 m/s 737 mmHg 93%
    23:00 +10°C° 0.1 mm 5 m/s 737 mmHg 93%

    28 Setembro, Sexta-feira

    Tempo Temperatura Precipitação Vento Pressão Humidade
    00:00 +10°C° 0 mm 5 m/s 736 mmHg 93%
    01:00 +10°C° 0 mm 5 m/s 736 mmHg 93%
    02:00 +10°C° 0 mm 6 m/s 735 mmHg 93%
    03:00 +10°C° 0.1 mm 7 m/s 735 mmHg 91%
    04:00 +11°C° 0.1 mm 8 m/s 734 mmHg 89%
    05:00 +12°C° 0.1 mm 8 m/s 733 mmHg 88%
    06:00 +12°C° 0.3 mm 8 m/s 733 mmHg 87%
    07:00 +12°C° 0.3 mm 8 m/s 733 mmHg 86%
    08:00 +12°C° 0.3 mm 8 m/s 733 mmHg 86%
    09:00 +11°C° 0.6 mm 7 m/s 734 mmHg 87%
    10:00 +10°C° 0.6 mm 5 m/s 734 mmHg 87%
    11:00 +10°C° 0.6 mm 4 m/s 735 mmHg 88%
    12:00 +10°C° 0.2 mm 3 m/s 735 mmHg 86%
    13:00 +10°C° 0.2 mm 3 m/s 736 mmHg 83%
    14:00 +10°C° 0.2 mm 2 m/s 736 mmHg 81%
    15:00 +10°C° 0 mm 2 m/s 736 mmHg 82%
    16:00 +10°C° 0 mm 2 m/s 736 mmHg 83%
    17:00 +10°C° 0 mm 2 m/s 737 mmHg 83%
    18:00 +9°C° 0 mm 2 m/s 737 mmHg 86%
    19:00 +9°C° 0 mm 2 m/s 737 mmHg 89%
    20:00 +8°C° 0 mm 2 m/s 737 mmHg 92%
    21:00 +8°C° 0 mm 3 m/s 738 mmHg 93%
    22:00 +7°C° 0 mm 3 m/s 738 mmHg 93%
    23:00 +6°C° 0 mm 4 m/s 738 mmHg 94%

    29 Setembro, Sábado

    Tempo Temperatura Precipitação Vento Pressão Humidade
    00:00 +6°C° 0 mm 4 m/s 738 mmHg 92%
    01:00 +6°C° 0 mm 4 m/s 739 mmHg 90%
    02:00 +6°C° 0 mm 4 m/s 739 mmHg 88%
    03:00 +5°C° 0 mm 4 m/s 739 mmHg 88%
    04:00 +4°C° 0 mm 4 m/s 740 mmHg 88%
    05:00 +3°C° 0 mm 5 m/s 740 mmHg 87%
    06:00 +3°C° 0 mm 5 m/s 741 mmHg 87%
    07:00 +4°C° 0 mm 4 m/s 741 mmHg 86%
    08:00 +3°C° 0 mm 4 m/s 742 mmHg 85%
    09:00 +5°C° 0 mm 5 m/s 742 mmHg 77%
    10:00 +6°C° 0 mm 5 m/s 743 mmHg 70%
    11:00 +7°C° 0 mm 5 m/s 744 mmHg 62%
    12:00 +7°C° 0 mm 5 m/s 744 mmHg 58%
    13:00 +8°C° 0 mm 5 m/s 744 mmHg 53%
    14:00 +8°C° 0 mm 5 m/s 744 mmHg 48%
    15:00 +7°C° 0 mm 4 m/s 745 mmHg 52%
    16:00 +8°C° 0 mm 3 m/s 745 mmHg 57%
    17:00 +7°C° 0 mm 2 m/s 745 mmHg 61%
    18:00 +6°C° 0 mm 2 m/s 746 mmHg 66%
    19:00 +5°C° 0 mm 2 m/s 746 mmHg 71%
    20:00 +4°C° 0 mm 2 m/s 746 mmHg 75%
    21:00 +4°C° 0 mm 2 m/s 747 mmHg 78%
    22:00 +3°C° 0 mm 2 m/s 747 mmHg 80%
    23:00 +3°C° 0 mm 2 m/s 747 mmHg 82%
    Mostrar mais